Meteo orario Abbey

Oggi, 28 Febbraio, Domenica

Tempo Temperatura Precipitazioni Vento Pressione Umidità
00:00 -18°C° 0 mm 2 m/s 702 mm Hg 83%
01:00 -17°C° 0 mm 2 m/s 701 mm Hg 81%
02:00 -17°C° 0 mm 2 m/s 701 mm Hg 80%
03:00 -16°C° 0 mm 2 m/s 700 mm Hg 80%
04:00 -16°C° 0 mm 2 m/s 700 mm Hg 79%
05:00 -16°C° 0 mm 3 m/s 700 mm Hg 78%
06:00 -14°C° 0 mm 2 m/s 699 mm Hg 79%
07:00 -13°C° 0 mm 2 m/s 699 mm Hg 81%
08:00 -12°C° 0 mm 2 m/s 699 mm Hg 82%
09:00 -10°C° 0 mm 2 m/s 699 mm Hg 82%
10:00 -10°C° 0 mm 3 m/s 699 mm Hg 83%
11:00 -9°C° 0 mm 3 m/s 699 mm Hg 83%
12:00 -9°C° 0 mm 3 m/s 699 mm Hg 85%
13:00 -10°C° 0 mm 3 m/s 699 mm Hg 87%
14:00 -12°C° 0 mm 3 m/s 700 mm Hg 89%
15:00 -13°C° 0 mm 3 m/s 700 mm Hg 91%
16:00 -14°C° 0 mm 3 m/s 700 mm Hg 93%
17:00 -16°C° 0 mm 3 m/s 701 mm Hg 94%
18:00 -17°C° 0 mm 3 m/s 701 mm Hg 95%
19:00 -17°C° 0 mm 3 m/s 702 mm Hg 95%
20:00 -18°C° 0 mm 3 m/s 702 mm Hg 96%
21:00 -18°C° 0 mm 3 m/s 703 mm Hg 95%
22:00 -17°C° 0 mm 3 m/s 703 mm Hg 94%
23:00 -16°C° 0 mm 3 m/s 703 mm Hg 93%

Domani, 1 Marzo, Lunedi

Tempo Temperatura Precipitazioni Vento Pressione Umidità
00:00 -15°C° 0 mm 3 m/s 703 mm Hg 92%
01:00 -14°C° 0 mm 3 m/s 702 mm Hg 91%
02:00 -13°C° 0 mm 3 m/s 702 mm Hg 90%
03:00 -12°C° 0 mm 3 m/s 702 mm Hg 87%
04:00 -11°C° 0 mm 4 m/s 701 mm Hg 84%
05:00 -9°C° 0 mm 4 m/s 701 mm Hg 81%
06:00 -10°C° 0 mm 5 m/s 700 mm Hg 80%
07:00 -8°C° 0 mm 5 m/s 700 mm Hg 79%
08:00 -7°C° 0 mm 5 m/s 699 mm Hg 79%
09:00 -5°C° 0 mm 5 m/s 699 mm Hg 79%
10:00 -4°C° 0 mm 6 m/s 698 mm Hg 79%
11:00 -2°C° 0 mm 6 m/s 698 mm Hg 80%
12:00 -1°C° 0 mm 6 m/s 697 mm Hg 82%
13:00 -1°C° 0 mm 6 m/s 697 mm Hg 83%
14:00 -1°C° 0 mm 6 m/s 696 mm Hg 85%
15:00 +1°C° 0 mm 6 m/s 696 mm Hg 81%
16:00 0°C° 0 mm 7 m/s 695 mm Hg 78%
17:00 0°C° 0 mm 7 m/s 695 mm Hg 74%
18:00 0°C° 0 mm 8 m/s 695 mm Hg 73%
19:00 +1°C° 0 mm 9 m/s 694 mm Hg 71%
20:00 +1°C° 0 mm 11 m/s 694 mm Hg 70%
21:00 +1°C° 0 mm 11 m/s 694 mm Hg 70%
22:00 +1°C° 0 mm 10 m/s 694 mm Hg 71%
23:00 0°C° 0 mm 10 m/s 694 mm Hg 71%

Dopodomani, 2 Marzo, Martedi

Tempo Temperatura Precipitazioni Vento Pressione Umidità
00:00 -1°C° 0 mm 9 m/s 695 mm Hg 73%
01:00 -2°C° 0 mm 8 m/s 695 mm Hg 74%
02:00 -3°C° 0 mm 6 m/s 695 mm Hg 76%
03:00 -5°C° 0 mm 6 m/s 696 mm Hg 79%
04:00 -6°C° 0 mm 6 m/s 697 mm Hg 81%
05:00 -7°C° 0 mm 5 m/s 698 mm Hg 84%
06:00 -8°C° 0 mm 5 m/s 698 mm Hg 85%
07:00 -9°C° 0 mm 4 m/s 699 mm Hg 86%
08:00 -9°C° 0 mm 3 m/s 699 mm Hg 86%
09:00 -7°C° 0 mm 2 m/s 699 mm Hg 86%
10:00 -4°C° 0 mm 1 m/s 700 mm Hg 85%
11:00 -3°C° 0 mm 1 m/s 700 mm Hg 84%
12:00 -2°C° 0 mm 1 m/s 700 mm Hg 85%
13:00 -3°C° 0 mm 2 m/s 700 mm Hg 86%
14:00 -3°C° 0 mm 2 m/s 699 mm Hg 86%
15:00 -4°C° 0 mm 2 m/s 699 mm Hg 85%
16:00 -2°C° 0 mm 1 m/s 699 mm Hg 84%
17:00 -4°C° 0 mm 0 m/s 698 mm Hg 83%
18:00 -3°C° 0 mm 1 m/s 698 mm Hg 82%
19:00 -6°C° 0 mm 2 m/s 698 mm Hg 80%
20:00 -6°C° 0 mm 2 m/s 698 mm Hg 79%
21:00 -6°C° 0 mm 2 m/s 698 mm Hg 80%
22:00 -7°C° 0 mm 3 m/s 698 mm Hg 80%
23:00 -7°C° 0 mm 3 m/s 699 mm Hg 81%

3 Marzo, Mercoledi

Tempo Temperatura Precipitazioni Vento Pressione Umidità
00:00 -6°C° 0 mm 2 m/s 699 mm Hg 80%
01:00 -6°C° 0 mm 2 m/s 699 mm Hg 79%
02:00 -6°C° 0 mm 2 m/s 699 mm Hg 78%
03:00 -6°C° 0 mm 2 m/s 699 mm Hg 78%
04:00 -6°C° 0 mm 2 m/s 699 mm Hg 77%
05:00 -6°C° 0 mm 2 m/s 699 mm Hg 76%
06:00 -6°C° 0 mm 2 m/s 699 mm Hg 77%
07:00 -6°C° 0 mm 2 m/s 700 mm Hg 79%
08:00 -6°C° 0 mm 2 m/s 700 mm Hg 80%
09:00 -4°C° 0 mm 2 m/s 700 mm Hg 82%
10:00 -3°C° 0 mm 2 m/s 701 mm Hg 83%
11:00 -2°C° 0 mm 2 m/s 701 mm Hg 85%
12:00 -2°C° 0 mm 2 m/s 701 mm Hg 88%
13:00 -1°C° 0 mm 2 m/s 701 mm Hg 92%
14:00 -1°C° 0 mm 2 m/s 702 mm Hg 95%
15:00 -1°C° 0 mm 2 m/s 701 mm Hg 90%
16:00 -1°C° 0 mm 2 m/s 701 mm Hg 86%
17:00 -2°C° 0 mm 2 m/s 701 mm Hg 81%
18:00 -2°C° 0 mm 2 m/s 702 mm Hg 80%
19:00 -3°C° 0 mm 2 m/s 702 mm Hg 79%
20:00 -4°C° 0 mm 3 m/s 702 mm Hg 78%
21:00 -3°C° 0 mm 2 m/s 702 mm Hg 76%
22:00 -3°C° 0 mm 2 m/s 702 mm Hg 75%
23:00 -4°C° 0 mm 2 m/s 702 mm Hg 74%

4 Marzo, Giovedi

Tempo Temperatura Precipitazioni Vento Pressione Umidità
00:00 -4°C° 0 mm 2 m/s 702 mm Hg 74%
01:00 -4°C° 0 mm 2 m/s 702 mm Hg 74%
02:00 -4°C° 0 mm 2 m/s 702 mm Hg 74%
03:00 -4°C° 0 mm 2 m/s 702 mm Hg 74%
04:00 -3°C° 0 mm 1 m/s 702 mm Hg 75%
05:00 -3°C° 0 mm 1 m/s 702 mm Hg 75%
06:00 -3°C° 0 mm 1 m/s 702 mm Hg 75%
07:00 -3°C° 0 mm 1 m/s 702 mm Hg 75%
08:00 -2°C° 0 mm 1 m/s 702 mm Hg 75%
09:00 -1°C° 0 mm 1 m/s 703 mm Hg 79%
10:00 0°C° 0 mm 1 m/s 703 mm Hg 82%
11:00 +1°C° 0 mm 1 m/s 704 mm Hg 86%
12:00 +1°C° 0 mm 1 m/s 704 mm Hg 88%
13:00 +1°C° 0 mm 1 m/s 703 mm Hg 90%
14:00 +1°C° 0 mm 1 m/s 703 mm Hg 91%
15:00 +1°C° 0 mm 1 m/s 703 mm Hg 89%
16:00 0°C° 0 mm 1 m/s 704 mm Hg 86%
17:00 -1°C° 0 mm 1 m/s 704 mm Hg 84%
18:00 -2°C° 0 mm 1 m/s 704 mm Hg 83%
19:00 -3°C° 0 mm 1 m/s 704 mm Hg 83%
20:00 -4°C° 0 mm 0 m/s 704 mm Hg 83%
21:00 -5°C° 0 mm 0 m/s 704 mm Hg 83%
22:00 -5°C° 0 mm 0 m/s 705 mm Hg 83%
23:00 -5°C° 0 mm 0 m/s 705 mm Hg 83%

5 Marzo, Venerdi

Tempo Temperatura Precipitazioni Vento Pressione Umidità
00:00 -5°C° 0 mm 0 m/s 705 mm Hg 83%
01:00 -5°C° 0 mm 0 m/s 705 mm Hg 82%
02:00 -5°C° 0 mm 0 m/s 705 mm Hg 82%
03:00 -5°C° 0 mm 0 m/s 705 mm Hg 82%
04:00 -4°C° 0 mm 1 m/s 705 mm Hg 82%
05:00 -4°C° 0 mm 1 m/s 705 mm Hg 81%
06:00 -4°C° 0 mm 1 m/s 705 mm Hg 81%
07:00 -4°C° 0 mm 1 m/s 705 mm Hg 81%
08:00 -3°C° 0 mm 1 m/s 705 mm Hg 81%
09:00 -2°C° 0 mm 1 m/s 705 mm Hg 82%
10:00 -1°C° 0 mm 1 m/s 705 mm Hg 83%
11:00 -2°C° 0 mm 2 m/s 706 mm Hg 84%
12:00 -1°C° 0 mm 2 m/s 705 mm Hg 86%
13:00 -1°C° 0 mm 2 m/s 705 mm Hg 88%
14:00 -1°C° 0 mm 2 m/s 705 mm Hg 90%
15:00 -1°C° 0 mm 2 m/s 704 mm Hg 87%
16:00 -1°C° 0 mm 2 m/s 704 mm Hg 85%
17:00 -2°C° 0 mm 2 m/s 703 mm Hg 83%
18:00 -2°C° 0 mm 2 m/s 703 mm Hg 82%
19:00 -2°C° 0 mm 2 m/s 703 mm Hg 81%
20:00 -3°C° 0 mm 2 m/s 703 mm Hg 80%
21:00 -2°C° 0 mm 2 m/s 702 mm Hg 77%
22:00 -2°C° 0 mm 2 m/s 702 mm Hg 74%
23:00 -2°C° 0 mm 3 m/s 701 mm Hg 72%
Mostrare altro

Abbiamo bisogno del tuo consenso

Meteoprog e i nostri fornitori di servizi possono memorizzare e accedere a dati personali come cookie, identificatori di dispositivi o altre tecnologie simili sul tuo dispositivo e possono elaborare tali dati per personalizzare i contenuti e gli annunci, nonché fornire funzionalità dei social media e analizzarne il traffico.

  • Archiviare e/o accedere alle informazioni sul tuo dispositivo

    Cookie, identificatori di dispositivi o altre informazioni possono essere memorizzati o resi accessibili sul tuo dispositivo per le finalità sopra indicate.

  • Annunci e contenuti personalizzati, misurazione di annunci e contenuti, approfondimenti sul pubblico e sviluppo di prodotti

    Gli annunci e i contenuti possono essere personalizzati in base a un profilo. È possibile aggiungere più dati per personalizzare meglio annunci e contenuti. È possibile misurare il rendimento degli annunci e dei contenuti. È possibile ricavare informazioni sul pubblico che ha visto gli annunci e i contenuti. Tali dati possono essere utilizzati per sviluppare o migliorare l'esperienza, i sistemi e il software dell'utente.

Cliccando su “Accetto”, acconsenti all'uso di cookie, identificatori di dispositivo, web beacon o altre tecnologie simili. Puoi modificare le impostazioni nel browser del tuo dispositivo.

Per determinati scopi, è possibile fare affidamento su interessi legali, piuttosto che sul consenso. Puoi approfondire questo argomento consultando la nostra Informativa sulla privacy e sui cookie.